Weather History for Santa Monica, CA

Change the Weather History Date:

Thursday, October 25, 2012

  Actual Average Record
Temperature  
Mean Temperature 73 °F -  
Max Temperature 86 °F 76 °F 92 °F (1945)
Min Temperature 62 °F 56 °F 42 °F (1935)
Cooling Degree Days 8    
Growing Degree Days 23 (Base 50)    
Moisture  
Dew Point 36 °F    
Average Humidity 27    
Maximum Humidity 42    
Minimum Humidity 17    
Precipitation  
Precipitation 0.00 in - - ()
Sea Level Pressure  
Sea Level Pressure 30.01 in    
Wind  
Wind Speed 7 mph (NNW)    
Max Wind Speed 14 mph    
Max Gust Speed 24 mph    
Visibility 10 miles    
Events      
Averages and records for this station are not official NWS values.
T = Trace of Precipitation, MM = Missing Value Source: NWS Daily Summary

Daily Weather History Graph

Daily Weather History Graph

Search for Another Location

Airport:

Trip Planner

Search our weather history database for the weather conditions in past years. The results will help you decide how hot, cold, wet, or windy it might be!

Date:

Astronomy

Oct. 25, 2012 Rise Set
Actual Time 7:07 AM PDT 6:07 PM PDT
Civil Twilight 6:42 AM PDT 6:32 PM PDT
Nautical Twilight 6:12 AM PDT 7:02 PM PDT
Astronomical Twilight 5:43 AM PDT 7:31 PM PDT
Moon 3:47 PM PDT (10/25) 3:18 AM PDT (10/25)
Length of Visible Light 11h 50m
Length of Day
10h 59m
Waxing Gibbous, 85% of the Moon is Illuminated
Oct 25
Waxing Gibbous
Oct 29
Full
Nov 6
Last Quarter
Nov 13
New
Nov 20
First Quarter

Hourly Weather History & Observations

Time (PDT) Temp. Dew Point Humidity Pressure Visibility Wind Dir Wind Speed Gust Speed Precip Events Conditions
12:51 AM 64.0 °F 33.1 °F 31% 30.06 in 10.0 mi North 9.2 mph 16.1 mph N/A   Clear
1:51 AM 64.0 °F 34.0 °F 33% 30.06 in 10.0 mi North 6.9 mph - N/A   Clear
2:51 AM 64.0 °F 30.9 °F 29% 30.06 in 10.0 mi NNW 4.6 mph - N/A   Clear
3:51 AM 64.0 °F 33.1 °F 31% 30.04 in 10.0 mi NW 10.4 mph - N/A   Clear
4:51 AM 62.1 °F 33.1 °F 34% 30.04 in 10.0 mi Calm Calm - N/A   Clear
5:51 AM 64.9 °F 30.0 °F 27% 30.04 in 10.0 mi Variable 5.8 mph - N/A   Clear
6:51 AM 66.0 °F 30.9 °F 27% 30.05 in 10.0 mi Variable 4.6 mph - N/A   Clear
7:51 AM 66.9 °F 32.0 °F 27% 30.06 in 10.0 mi Variable 5.8 mph - N/A   Clear
8:51 AM 71.1 °F 33.1 °F 25% 30.07 in 10.0 mi Variable 3.5 mph - N/A   Clear
9:51 AM 73.0 °F 32.0 °F 22% 30.07 in 10.0 mi North 8.1 mph - N/A   Clear
10:51 AM 77.0 °F 32.0 °F 19% 30.05 in 10.0 mi North 8.1 mph 19.6 mph N/A   Clear
11:51 AM 81.0 °F 34.0 °F 18% 30.04 in 10.0 mi Variable 5.8 mph 16.1 mph N/A   Clear
12:51 PM 84.9 °F 35.1 °F 17% 30.01 in 10.0 mi Variable 4.6 mph - N/A   Clear
1:10 PM 82.4 °F 37.4 °F 20% 30.00 in 10.0 mi Variable 5.8 mph - N/A   Clear
1:51 PM 75.9 °F 46.0 °F 35% 29.98 in 10.0 mi West 10.4 mph 18.4 mph N/A   Clear
2:51 PM 75.9 °F 51.1 °F 42% 29.94 in 10.0 mi South 10.4 mph - N/A   Clear
3:51 PM 84.9 °F 39.0 °F 20% 29.93 in 10.0 mi NNW 10.4 mph 16.1 mph N/A   Clear
4:51 PM 77.0 °F 48.9 °F 37% 29.92 in 10.0 mi WSW 6.9 mph - N/A   Clear
6:51 PM 75.9 °F 37.0 °F 24% 29.94 in 10.0 mi NNW 11.5 mph 23.0 mph N/A   Clear
7:51 PM 73.9 °F 37.0 °F 26% 29.95 in 10.0 mi NNW 9.2 mph 19.6 mph N/A   Clear
9:51 PM 72.0 °F 36.0 °F 27% 29.95 in 10.0 mi North 13.8 mph 21.9 mph N/A   Clear
10:51 PM 71.1 °F 36.0 °F 28% 29.95 in 10.0 mi North 13.8 mph 24.2 mph N/A   Clear
11:51 PM 71.1 °F 34.0 °F 26% 29.96 in 10.0 mi NNW 9.2 mph - N/A   Clear